#timestamp,LO_Frequency,Hit 
1501801215.1,286047031.3,N
1501801235.8,286047031.3,N
1501801255.7,286047030.0,N
1501801275.5,286047025.3,N
1501801295.3,286047027.0,N
1501801315.2,286047027.0,N
1501801335.9,286047031.4,N
1501801355.7,286047029.7,N
1501801375.6,286047027.2,N
1501801395.4,286047029.1,N
1501801415.2,286047031.2,N
1501801435.1,286047030.8,N
1501801436.0,286047030.8,N
1501801455.8,286047033.1,N
1501801475.6,286047030.7,N
1501801495.4,286047030.8,N
1501801515.3,286047032.7,N
1501801535.1,286047032.2,N
1501801555.8,286047030.5,N
1501801575.7,286047033.0,N
1501801595.5,286047030.3,N
1501801615.3,286047032.4,N
1501801635.2,286047031.6,N
1501801655.9,286047032.9,N
1501801675.7,286047032.3,N
1501801695.6,286047032.7,N
1501801715.4,286047034.4,N
1501801735.2,286047031.7,N
1501801755.0,286047034.4,N
1501801755.9,286047034.4,N
1501801775.8,286047031.7,N
1501801795.6,286047032.3,N
1501801815.4,286047032.7,N
1501801835.3,286047032.5,N
1501801855.1,286047031.7,N
1501801875.8,286047032.0,N
1501801895.7,286047032.3,N
1501801915.5,286047032.4,N
1501801935.3,286047034.0,N
1501801955.2,286047034.3,N
1501801975.9,286047033.2,N
1501801995.7,286047030.8,N
1501802015.6,286047031.5,N
1501802035.4,286047031.0,N
1501802055.2,286047033.2,N
1501802075.0,286047032.0,N
1501802075.9,286047032.0,N
1501802095.8,286047031.8,N
1501802115.6,286047034.5,N
1501802135.4,286047033.8,N
1501802155.3,286047034.3,N
1501802175.1,286047034.6,N
1501802195.8,286047034.0,N
1501802215.7,286047034.4,N
1501802235.5,286047033.2,N
1501802255.3,286047030.5,N
1501802275.2,286047032.2,N
1501802295.9,286047032.7,N
1501802315.7,286047032.8,N
1501802335.6,286047032.6,N
1501802355.4,286047034.2,N
1501802375.2,286047034.2,N
1501802395.0,286047033.6,N
1501802396.0,286047033.6,N
1501802415.8,286047032.3,N
1501802435.6,286047033.0,N
1501802455.4,286047030.9,N
1501802475.3,286047030.3,N
1501802495.1,286047033.1,N
1501802515.8,286047034.4,N
1501802535.7,286047032.4,N
1501802555.5,286047032.4,N
1501802575.3,286047033.5,N
1501802595.2,286047035.9,N
1501802615.9,286047033.7,N
1501802635.7,286047034.7,N
1501802655.6,286047032.0,N
1501802675.4,286047034.8,N
1501802695.2,286047034.6,N
1501802715.0,286047036.3,N
1501802715.9,286047036.3,N
1501802735.8,286047036.0,N
1501802755.6,286047035.3,N
1501802775.4,286047034.9,N
1501802795.3,286047037.9,N
1501802815.1,286047036.4,N
1501802835.8,286047033.3,N
1501802855.7,286047035.7,N
1501802875.5,286047036.3,N
1501802895.3,286047035.4,N
1501802915.2,286047036.2,N
1501802935.9,286047037.9,N
1501802955.7,286047035.2,N
1501802975.5,286047035.2,N
1501802995.4,286047036.3,N
1501803015.2,286047037.5,N
1501803035.0,286047035.7,N
1501803035.9,286047035.7,N
1501803055.8,286047036.1,N
1501803075.6,286047033.8,N
1501803095.4,286047035.4,N
1501803115.3,286047037.3,N
1501803135.1,286047035.0,N
1501803155.8,286047034.7,N
1501803175.7,286047034.7,N
1501803195.5,286047034.7,N
1501803215.3,286047033.6,N
1501803235.2,286047035.1,N
1501803255.9,286047033.5,N
1501803275.7,286047034.4,N
1501803295.5,286047034.1,N
1501803315.4,286047035.8,N
1501803335.2,286047035.0,N
1501803355.0,286047035.0,N
1501803355.9,286047035.0,N
1501803375.8,286047035.2,N
1501803395.6,286047036.0,N
1501803415.4,286047033.3,N
1501803435.3,286047032.3,N
1501803455.1,286047036.4,N
1501803456.0,286047036.4,N
1501803475.8,286047035.6,N
1501803495.7,286047035.2,N
1501803515.5,286047035.4,N
1501803535.3,286047036.0,N
1501803555.1,286047035.0,N
1501803575.9,286047037.3,N
1501803595.7,286047039.4,N
1501803615.5,286047037.2,N
1501803635.4,286047037.2,N
1501803655.2,286047038.7,N
1501803675.0,286047039.5,N
1501803675.9,286047039.5,N
1501803695.8,286047037.6,N
1501803715.6,286047037.0,N
1501803735.4,286047037.6,N
1501803755.3,286047039.6,N
1501803775.1,286047038.8,N
1501803776.0,286047038.8,N
1501803795.8,286047038.4,N
1501803815.7,286047038.2,N
1501803835.5,286047038.6,N
1501803855.3,286047040.2,N
1501803875.1,286047042.8,N
1501803895.9,286047038.1,N
1501803915.7,286047036.5,N
1501803935.5,286047038.7,N
1501803955.4,286047038.9,N
1501803975.2,286047039.6,N
1501803995.0,286047037.7,N
1501803995.9,286047037.7,N
1501804015.8,286047036.9,N
1501804035.6,286047037.5,N
1501804055.4,286047037.7,N
1501804075.3,286047037.4,N
1501804095.1,286047037.2,N
1501804096.0,286047037.2,N
1501804115.8,286047037.8,N
1501804135.7,286047034.9,N
1501804155.5,286047036.6,N
1501804175.3,286047038.9,N
1501804195.1,286047038.7,N
1501804215.9,286047038.3,N
1501804235.7,286047038.3,N
1501804255.5,286047038.6,N
1501804275.4,286047039.4,N
1501804295.2,286047037.8,N
1501804315.0,286047037.3,N
1501804315.9,286047037.3,N
1501804335.8,286047036.5,N
1501804355.6,286047038.8,N
1501804375.4,286047040.7,N
1501804395.3,286047040.5,N
1501804415.1,286047042.7,N
1501804416.0,286047042.7,N
1501804435.8,286047038.8,N
1501804455.7,286047040.0,N
1501804475.5,286047042.4,N
1501804495.3,286047042.3,N
1501804515.1,286047042.4,N
1501804535.9,286047043.8,N
1501804555.7,286047043.8,N
1501804575.5,286047043.6,N
1501804595.4,286047043.4,N
1501804615.2,286047042.0,N
1501804635.0,286047042.3,N
1501804635.9,286047042.3,N
1501804655.8,286047042.0,N
1501804675.6,286047041.6,N
1501804695.4,286047042.8,N
1501804715.3,286047042.3,N
1501804735.1,286047042.5,N
1501804736.0,286047042.5,N
1501804755.8,286047040.3,N
1501804775.6,286047040.7,N
1501804795.5,286047041.0,N
